VINASAT-2

Last updated on Thu Sep 10 2026 00:02:57 GMT+0000 (Coordinated Universal Time)

1 38332U 12023B 26252.61225359 -.00000350 00000+0 00000+0 0 9994 2 38332 0.0491 304.4051 0002027 225.1769 171.3410 1.00270188 47505
UTC large
Height (km)
Speed (km/s)
/
Latitude / Longitude
Inclination (degrees)
Orbital Period (minutes)
Azimuth
Elevation
Range (km)
Doppler Factor

Next 0 passes for location: London (51.5072 / 0.1276)

No passes found over London.
VINASAT-2